Location: Palermo
(38.1157°N, 13.3613°E)
Time: 20:06:19
(UTC+02:00)

ISS - Visible Passes

Search period start: 26 July 2021 00:00
Search period end: 05 August 2021 00:00
Orbit: 419 x 421 km, 51.6° (Epoch: 26 July)

Date Brightness Start Highest point End Pass type
(mag) Time Alt. Az. Time Alt. Az. Time Alt. Az.
26 Jul -1.4 22:23:50 10° NNW 22:26:06 17° NNE 22:27:10 15° NE visible
26 Jul -0.4 23:59:55 10° NW 00:00:07 11° NW 00:00:07 11° NW visible
27 Jul -1.0 21:36:54 10° N 21:38:33 13° NNE 21:40:12 10° NE visible
27 Jul -1.6 23:12:39 10° NW 23:14:21 26° NNW 23:14:21 26° NNW visible
28 Jul -0.9 20:50:12 10° N 20:50:57 11° NNE 20:51:41 10° NNE visible
28 Jul -2.5 22:25:28 10° NW 22:28:35 34° NNE 22:28:38 34° NE visible
29 Jul -1.9 21:38:21 10° NNW 21:41:07 23° NNE 21:42:57 15° ENE visible
29 Jul -1.1 23:14:51 10° WNW 23:15:54 18° WNW 23:15:54 18° WNW visible
30 Jul -1.4 20:51:19 10° NNW 20:53:37 17° NNE 20:55:55 10° ENE visible
30 Jul -3.3 22:27:25 10° NW 22:30:16 60° WNW 22:30:16 60° WNW visible
31 Jul -3.4 21:40:08 10° NW 21:43:27 56° NE 21:44:41 33° E visible
01 Aug -2.6 20:52:56 10° NW 20:56:04 34° NNE 20:59:10 10° E visible
01 Aug -1.8 22:29:59 10° WNW 22:32:08 22° WSW 22:32:08 22° WSW visible
02 Aug -3.0 21:42:20 10° WNW 21:45:33 42° SW 21:46:40 30° S visible
03 Aug -3.7 20:54:53 10° NW 20:58:16 80° SW 21:01:17 12° SE visible
04 Aug -1.2 21:45:39 10° W 21:47:22 13° SW 21:48:57 10° SSW visible
